Content
SEND FEEDBACK

Daily
Averages
Monthly
Summary
United States of America

YIGO, GUAM


Home > North America > United States > Guam
Elevation: 530 feet     Latitude: 13 32N     Longitude: 144 53E

WEATHER
 
SELECT A DAY
Number of Records: 209,308;   Date Range: 1/1/95 - 9/18/14
 
SHARE

PRINT THIS DATA

[ ← Previous Day ]
WEATHER ALMANAC - JULY 4, 2014
[ Next Day → ]
[ °C ]   °F
Weather ElementAverageHighLow
Temperature81.9 °F84.9 °F (1:54 pm)78.8 °F (2:01 am)
Dewpoint75.7 °F78.8 °F (1:04 am)73 °F (4:54 pm)
Humidity81.7 %94 % (1:04 am)72 % (2:54 pm)
Barometer29.68 in29.79 in (8:46 pm)29.60 in (2:54 am)
Wind Speed18 mph26.5 mph (2:21 pm)
Wind Gust44.9 mph (2:21 pm)
Weather ElementAverage
Visibility8.9 mi
Wind DirectionSSE (148.4 °)

Weather ElementTotal
Precipitation0.25 in
Cooling Degree Days16.9 (Base 65)
Growing Degree Days31.9 (Base 50)
Averaged from 45 records on July 4, 2014
WEATHER CONDITIONS BREAKOUT
WIND DIRECTION BREAKOUT
WEATHER BY HOUR - JULY 4, 2014
[ °C ]   °F
Local TimeTemperatureDewpointHumidityBarometerVisibilityWind DirectionWind SpeedGust SpeedPrecipitationEventsConditions
12:54 AM80.1 °F77.0 °F90 %29.62 in5.0 miESE (110°)19.6 mph35.7 mph0.05 inRainLight Rain
12:56 AM80.6 °F77.0 °F89 %29.64 in7.0 miEast (100°)20.7 mph35.7 mph0.00 inRainLight Rain
1:04 AM80.6 °F78.8 °F94 %29.63 in10.0 miEast (100°)15.0 mph31.1 mph0.00 inMostly Cloudy
1:54 AM79.0 °F75.9 °F90 %29.62 in5.0 miSE (130°)16.1 mph39.1 mph0.01 inRainRain
2:01 AM78.8 °F75.2 °F89 %29.64 in5.0 miESE (110°)18.4 mph31.1 mph0.01 inRainRain
2:47 AM80.6 °F77.0 °F89 %29.62 in10.0 miESE (120°)18.4 mph36.8 mph0.02 inMostly Cloudy
2:54 AM81.0 °F77.0 °F88 %29.60 in9.0 miESE (120°)25.3 mph39.1 mph0.02 inRainLight Rain
3:01 AM80.6 °F75.2 °F84 %29.62 in10.0 miSE (130°)18.4 mph39.1 mph0.00 inRainLight Rain
3:54 AM82.0 °F75.0 °F79 %29.60 in10.0 miSE (130°)17.3 mph36.8 mph0.00 inMostly Cloudy
4:11 AM82.4 °F73.4 °F74 %29.63 in10.0 miSE (130°)19.6 mph35.7 mphMostly Cloudy
4:54 AM82.9 °F75.9 °F79 %29.62 in10.0 miSE (130°)13.8 mph28.8 mphOvercast
5:24 AM80.6 °F75.2 °F84 %29.65 in8.0 miESE (110°)21.9 mph32.2 mph0.00 inRainLight Rain
5:54 AM82.0 °F75.9 °F82 %29.62 in10.0 miSE (130°)15.0 mph28.8 mph0.00 inOvercast
6:01 AM82.4 °F75.2 °F79 %29.65 in10.0 miSE (130°)15.0 mph28.8 mphOvercast
6:13 AM82.4 °F75.2 °F79 %29.64 in10.0 miSE (130°)18.4 mph31.1 mphOvercast
6:54 AM82.0 °F75.0 °F79 %29.62 in10.0 miESE (120°)20.7 mph35.7 mphScattered Clouds
7:35 AM82.4 °F77.0 °F84 %29.67 in10.0 miESE (120°)16.1 mph31.1 mph0.00 inMostly Cloudy
7:54 AM82.0 °F75.0 °F79 %29.66 in10.0 miSE (140°)24.2 mph39.1 mph0.00 inMostly Cloudy
8:54 AM81.0 °F75.9 °F85 %29.67 in8.0 miSSE (150°)18.4 mph27.6 mph0.01 inMostly Cloudy
9:20 AM80.6 °F75.2 °F84 %29.69 in10.0 miSE (130°)18.4 mph26.5 mphOvercast
9:54 AM81.0 °F78.1 °F91 %29.67 in3.0 miSSE (150°)20.7 mph29.9 mph0.02 inRainLight Rain
10:54 AM82.9 °F77.0 °F82 %29.67 in10.0 miSSE (150°)18.4 mph28.8 mph0.00 inOvercast
11:54 AM82.9 °F75.9 °F79 %29.67 in10.0 miSouth (170°)21.9 mph38.0 mph0.00 inOvercast
12:06 PM80.6 °F77.0 °F89 %29.70 in4.0 miSSE (160°)21.9 mph35.7 mph0.00 inRainLight Rain
12:13 PM80.6 °F78.8 °F94 %29.70 in10.0 miSSE (160°)20.7 mph34.5 mph0.00 inRainLight Rain
12:54 PM84.0 °F75.9 °F76 %29.66 in10.0 miSSE (160°)21.9 mph35.7 mph0.01 inMostly Cloudy
1:54 PM84.9 °F75.9 °F74 %29.65 in10.0 miSSE (160°)25.3 mph35.7 mphOvercast
2:08 PM84.2 °F75.2 °F74 %29.67 in10.0 miSSE (160°)23.0 mph41.4 mphMostly Cloudy
2:21 PM84.2 °F75.2 °F74 %29.67 in10.0 miSouth (170°)26.5 mph44.9 mphMostly Cloudy
2:54 PM84.9 °F75.0 °F72 %29.66 in10.0 miSouth (170°)24.2 mph35.7 mphMostly Cloudy
3:36 PM82.4 °F75.2 °F79 %29.70 in10.0 miSSE (160°)17.3 mph34.5 mph0.00 inRainLight Rain
3:54 PM82.0 °F77.0 °F85 %29.68 in7.0 miSouth (180°)15.0 mph34.5 mph0.03 inRainLight Rain
4:27 PM82.4 °F75.2 °F79 %29.69 in10.0 miSouth (180°)15.0 mph29.9 mph0.00 inOvercast
4:54 PM82.9 °F73.0 °F72 %29.68 in10.0 miSouth (170°)15.0 mph31.1 mph0.00 inOvercast
5:04 PM82.4 °F73.4 °F74 %29.71 in10.0 miSouth (170°)17.3 mph31.1 mphOvercast
5:46 PM82.4 °F75.2 °F79 %29.72 in10.0 miSouth (170°)13.8 mph25.3 mph0.00 inOvercast
5:54 PM82.9 °F75.0 °F77 %29.70 in10.0 miSouth (170°)16.1 mph31.1 mph0.00 inOvercast
6:54 PM82.9 °F73.0 °F72 %29.72 in10.0 miSouth (180°)10.4 mph26.5 mphMostly Cloudy
7:54 PM84.0 °F75.0 °F74 %29.74 in10.0 miSSE (160°)13.8 mph24.2 mphOvercast
8:16 PM84.2 °F75.2 °F74 %29.78 in7.0 miSouth (180°)19.6 mph26.5 mph0.00 inRainLight Rain
8:46 PM80.6 °F77.0 °F89 %29.79 in6.0 miSouth (170°)13.8 mph24.2 mph0.03 inRainLight Rain
8:54 PM80.1 °F78.1 °F94 %29.77 in8.0 miSouth (170°)12.7 mph0.04 inRainLight Rain
9:54 PM80.1 °F75.0 °F85 %29.77 in10.0 miSouth (180°)10.4 mph19.6 mph0.00 inScattered Clouds
10:54 PM82.0 °F75.9 °F82 %29.79 in10.0 miSouth (180°)10.4 mph19.6 mphScattered Clouds
11:54 PM82.0 °F73.9 °F76 %29.78 in10.0 miSouth (180°)13.8 mph21.9 mphScattered Clouds
Hourly data recorded from PGUM, located miles away from Yigo, Guam







STORIES FROM OUR PARTNERS